Date,TemperatureHighF,TemperatureAvgF,TemperatureLowF,DewpointHighF,DewpointAvgF,DewpointLowF,HumidityHigh,HumidityAvg,HumidityLow,PressureMaxIn,PressureMinIn,WindSpeedMaxMPH,WindSpeedAvgMPH,GustSpeedMaxMPH,PrecipitationSumIn
2013-1-1,27.0,20.6,11.0,26.0,18.1,8.0,96,90,72,30.17,30.04,5,-6,9,0.00
2013-1-2,22.0,13.7,4.0,14.0,8.8,-99.9,96,83,64,30.23,30.13,2,-7,9,0.00
2013-1-3,31.0,23.6,15.0,30.0,20.6,11.0,95,88,82,30.29,30.14,6,2,13,0.00
2013-1-4,32.0,22.3,11.0,27.0,17.3,-99.9,93,86,43,30.32,30.24,7,-12,16,0.00
2013-1-5,35.0,28.8,17.0,33.0,26.3,16.0,97,91,80,30.25,30.02,4,1,11,0.00
2013-1-6,36.0,28.9,15.0,34.0,26.1,14.0,97,89,82,30.32,29.96,7,-12,14,0.00
2013-1-7,36.0,24.7,14.0,29.0,22.1,13.0,99,90,74,30.37,30.13,4,1,13,0.00
2013-1-8,43.0,33.1,22.0,34.0,29.0,21.0,97,86,68,30.19,30.09,3,1,8,0.00
2013-1-9,51.0,40.4,30.0,41.0,35.2,28.0,97,82,61,30.46,30.09,5,-5,10,0.00
2013-1-10,50.0,38.0,28.0,49.0,34.7,26.0,100,88,68,30.45,29.85,4,-6,12,0.00
2013-1-11,57.0,54.4,50.0,56.0,51.7,48.0,100,91,78,29.85,29.70,7,4,18,0.00
2013-1-12,60.0,49.7,33.0,53.0,47.2,33.0,100,91,77,29.92,29.74,9,3,19,0.00
2013-1-13,33.0,27.3,17.0,33.0,26.8,14.0,100,97,88,30.24,29.74,9,5,20,0.00
2013-1-14,23.0,18.3,15.0,20.0,15.9,13.0,97,91,83,30.43,30.24,4,1,9,0.00
2013-1-15,29.0,22.8,16.0,24.0,20.1,15.0,97,90,78,30.36,30.06,7,-12,16,0.00
2013-1-16,37.0,29.3,19.0,30.0,25.3,19.0,99,86,63,30.06,29.90,7,2,18,0.00
2013-1-17,35.0,30.6,21.0,31.0,24.8,-99.9,98,82,63,30.38,30.03,8,3,20,0.00
2013-1-18,40.0,31.0,20.0,31.0,23.7,-99.9,95,79,60,30.41,30.04,6,3,22,0.00
2013-1-19,52.0,41.1,35.0,40.0,34.6,31.0,89,78,62,30.05,29.82,6,3,15,0.00
2013-1-20,40.0,24.0,19.0,35.0,16.8,13.0,83,74,65,30.29,29.94,10,3,23,0.00
2013-1-21,20.0,13.7,6.0,17.0,7.3,1.0,93,75,55,30.27,30.13,8,4,19,0.00
2013-1-22,17.0,10.4,4.0,6.0,2.4,0.0,87,70,54,30.36,30.26,5,2,11,0.00
2013-1-23,28.0,19.4,11.0,19.0,11.1,4.0,82,70,60,30.30,30.05,8,1,18,0.00
2013-1-24,25.0,17.9,9.0,13.0,8.5,3.0,81,67,52,30.55,30.22,8,2,19,0.00
2013-1-25,32.0,24.0,19.0,26.0,18.5,9.0,95,80,55,30.30,29.98,6,1,13,0.00
2013-1-26,31.0,22.0,12.0,21.0,16.8,10.0,94,81,61,30.35,30.11,4,0,9,0.00
2013-1-27,41.0,30.1,20.0,41.0,27.3,17.0,100,89,76,30.32,29.95,5,2,13,0.00
2013-1-28,57.0,49.6,41.0,57.0,45.6,-99.9,100,97,99,29.95,29.85,4,2,15,0.00
2013-1-29,61.0,58.3,53.0,60.0,56.8,-23.0,100,96,3,29.85,29.31,12,-3,26,0.00
2013-1-30,53.0,41.4,24.0,53.0,40.3,20.0,100,96,85,29.67,29.26,84,5,84,0.00
2013-1-31,25.0,18.5,8.0,23.0,14.2,3.0,98,83,76,30.16,29.67,11,6,25,0.00
2013-2-1,20.0,12.5,5.0,14.0,7.1,1.0,91,79,65,30.37,30.16,7,3,16,0.00
2013-2-2,29.0,22.1,14.0,27.0,18.2,-99.9,98,89,77,30.17,29.96,8,3,16,0.00
2013-2-3,26.0,20.5,12.0,23.0,17.6,9.0,99,88,73,30.05,29.92,8,1,20,0.00
2013-2-4,42.0,30.4,22.0,34.0,26.1,19.0,90,84,73,30.01,29.72,5,2,16,0.00
2013-2-5,38.0,31.2,24.0,37.0,29.2,23.0,99,92,84,30.04,29.78,8,2,15,0.00
2013-2-6,42.0,34.7,28.0,33.0,29.3,26.0,96,81,65,30.21,30.04,4,1,11,0.00
2013-2-7,58.0,40.7,30.0,46.0,36.0,28.0,100,85,56,30.09,29.76,9,2,19,0.00
2013-2-8,34.0,27.8,20.0,34.0,26.3,19.0,99,94,88,30.32,29.87,9,5,19,0.00
2013-2-9,44.0,33.4,20.0,33.0,27.7,19.0,96,80,60,30.34,30.05,3,1,9,0.00
2013-2-10,49.0,41.6,35.0,49.0,39.7,29.0,100,93,75,30.06,29.59,6,3,20,0.00
2013-2-11,43.0,32.8,26.0,42.0,26.8,23.0,97,79,67,30.04,29.61,11,6,27,0.00
2013-2-12,37.0,29.7,24.0,31.0,27.4,22.0,99,91,77,30.10,29.88,5,1,10,0.00
2013-2-13,48.0,35.0,23.0,36.0,30.6,23.0,100,85,57,29.88,29.70,6,1,13,0.00
2013-2-14,47.0,37.9,33.0,39.0,33.7,29.0,97,85,67,29.97,29.72,7,2,19,0.00
2013-2-15,34.0,31.2,25.0,32.0,25.9,19.0,98,81,56,30.15,29.95,8,3,19,0.00
2013-2-16,26.0,21.8,16.0,20.0,15.3,9.0,89,76,61,30.14,30.08,7,3,18,0.00
2013-2-17,36.0,22.1,7.0,22.0,13.8,4.0,95,71,51,30.20,29.99,4,0,9,0.00
2013-2-18,53.0,41.3,31.0,48.0,35.6,21.0,100,81,65,29.99,29.48,8,4,23,0.00
2013-2-19,32.0,23.6,18.0,31.0,18.7,12.0,97,82,73,30.14,29.64,9,6,25,0.00
2013-2-20,26.0,18.7,10.0,20.0,13.5,6.0,91,80,67,30.30,30.14,8,2,19,0.00
2013-2-21,30.0,25.0,15.0,30.0,22.4,14.0,100,90,78,30.29,29.83,9,3,25,0.00
2013-2-22,36.0,32.2,28.0,35.0,31.4,25.0,100,97,87,29.96,29.75,7,3,15,0.00
2013-2-23,29.0,26.6,22.0,25.0,23.7,21.0,97,88,78,29.96,29.91,6,2,15,0.00
2013-2-24,39.0,27.8,18.0,29.0,24.2,18.0,99,87,65,30.11,29.94,2,0,7,0.00
2013-2-25,45.0,34.8,25.0,33.0,29.4,24.0,98,82,60,30.09,29.75,9,3,19,0.00
2013-2-26,37.0,34.9,32.0,37.0,34.0,30.0,100,96,81,29.76,29.32,13,5,35,0.00
2013-2-27,34.0,32.6,32.0,34.0,32.6,32.0,100,99,98,29.69,29.45,7,4,17,0.00
2013-2-28,37.0,33.8,32.0,35.0,32.8,29.0,100,96,86,29.99,29.68,7,4,15,0.00
2013-3-1,32.0,30.3,28.0,32.0,28.2,-99.9,100,95,88,30.08,29.95,7,4,15,0.00
2013-3-2,30.0,27.8,23.0,29.0,25.3,18.0,97,90,79,30.12,30.05,7,4,16,0.00
2013-3-3,36.0,25.9,18.0,24.0,20.1,17.0,96,80,53,30.10,30.02,5,1,10,0.00
2013-3-4,37.0,31.3,23.0,31.0,25.9,21.0,96,81,65,30.06,29.85,6,2,18,0.00
2013-3-5,37.0,33.6,29.0,35.0,31.8,29.0,100,94,82,29.87,29.67,5,2,19,0.00
2013-3-6,31.0,29.0,28.0,30.0,28.5,27.0,100,97,94,30.27,29.84,7,4,18,0.00
2013-3-7,36.0,30.9,27.0,32.0,28.5,25.0,98,90,75,30.36,30.24,3,0,7,0.00
2013-3-8,45.0,34.1,24.0,33.0,28.9,24.0,99,82,59,30.43,30.25,4,1,10,0.00
2013-3-9,54.0,42.9,34.0,43.0,35.3,29.0,86,75,60,30.25,29.82,4,2,12,0.00
2013-3-10,63.0,55.7,50.0,54.0,45.7,39.0,99,70,54,29.82,29.62,6,3,22,0.00
2013-3-11,53.0,40.2,33.0,52.0,39.4,31.0,100,97,93,29.85,29.57,9,5,23,0.00
2013-3-12,42.0,34.4,30.0,36.0,29.5,25.0,99,83,63,30.03,29.85,9,4,25,0.00
2013-3-13,34.0,28.4,25.0,26.0,23.0,21.0,89,80,63,30.30,30.03,8,4,16,0.00
2013-3-14,40.0,30.3,22.0,34.0,27.1,21.0,100,89,60,30.32,30.08,4,1,11,0.00
2013-3-15,55.0,40.1,26.0,46.0,36.7,26.0,100,89,69,30.08,29.63,4,1,9,0.00
2013-3-16,45.0,38.2,32.0,41.0,35.8,29.0,100,91,81,30.03,29.55,9,4,18,0.00
2013-3-17,40.0,34.6,31.0,32.0,28.8,26.0,89,79,67,30.11,29.85,7,4,19,0.00
2013-3-18,39.0,35.7,28.0,39.0,34.7,23.0,100,96,83,29.86,29.57,9,4,20,0.00
2013-3-19,42.0,31.1,23.0,25.0,21.0,15.0,84,67,43,30.09,29.85,9,4,27,0.00
2013-3-20,30.0,25.7,21.0,23.0,16.9,12.0,90,70,50,30.09,30.00,8,4,20,0.00
2013-3-21,36.0,24.8,15.0,19.0,15.6,12.0,97,70,45,30.03,29.94,7,2,15,0.00
2013-3-22,46.0,32.2,18.0,25.0,20.5,16.0,95,65,37,30.03,29.93,2,0,9,0.00
2013-3-23,49.0,39.6,33.0,29.0,26.6,23.0,74,60,43,30.04,29.87,7,3,17,0.00
2013-3-24,35.0,31.7,29.0,32.0,30.2,27.0,100,94,75,29.87,29.46,13,6,29,0.00
2013-3-25,34.0,30.8,28.0,33.0,30.3,28.0,100,98,88,30.02,29.55,10,6,20,0.00
2013-3-26,39.0,33.0,27.0,32.0,29.2,26.0,97,86,67,30.23,30.02,6,2,13,0.00
2013-3-27,43.0,34.9,28.0,32.0,28.4,24.0,96,79,54,30.31,30.22,5,1,10,0.00
2013-3-28,49.0,37.2,26.0,37.0,30.1,24.0,95,77,54,30.33,30.24,4,1,10,0.00
2013-3-29,57.0,43.3,32.0,37.0,33.6,30.0,95,72,43,30.26,30.16,4,0,8,0.00
2013-3-30,59.0,46.2,31.0,42.0,36.1,-99.9,98,73,45,30.18,29.84,3,1,11,0.00
2013-3-31,62.0,51.1,42.0,48.0,43.5,33.0,99,77,49,29.85,29.72,9,3,21,0.00
2013-4-1,44.0,38.2,32.0,34.0,25.4,21.0,76,61,42,30.13,29.85,8,4,17,0.00
2013-4-2,46.0,35.5,26.0,24.0,21.0,16.0,85,58,33,30.26,30.13,6,1,14,0.00
2013-4-3,50.0,37.2,24.0,26.0,22.4,19.0,85,58,34,30.38,30.24,6,1,15,0.00
2013-4-4,59.0,44.4,28.0,29.0,25.1,21.0,86,51,23,30.26,29.96,4,0,10,0.00
2013-4-5,58.0,46.1,37.0,39.0,30.2,23.0,81,56,30,30.10,29.95,8,3,16,0.00
2013-4-6,72.0,56.2,40.0,42.0,36.0,28.0,72,49,29,30.07,29.69,7,4,28,0.00
2013-4-7,73.0,61.6,49.0,47.0,43.1,39.0,82,53,30,29.90,29.69,8,2,24,0.00
2013-4-8,75.0,64.1,56.0,59.0,55.8,43.0,98,76,53,29.90,29.71,10,3,24,0.00
2013-4-9,78.0,67.5,56.0,62.0,58.1,54.0,96,73,50,29.91,29.82,8,2,22,0.00
2013-4-10,74.0,62.4,46.0,65.0,58.8,46.0,100,89,72,29.84,29.62,12,3,24,0.00
2013-4-11,62.0,52.0,41.0,62.0,51.8,37.0,100,99,86,29.74,29.55,6,3,17,0.00
2013-4-12,43.0,40.3,38.0,39.0,36.0,31.0,93,84,73,29.89,29.61,10,5,23,0.00
2013-4-13,51.0,43.3,39.0,41.0,37.0,32.0,94,79,57,29.99,29.88,7,3,16,0.00
2013-4-14,75.0,57.4,41.0,50.0,44.6,39.0,96,67,34,29.94,29.70,6,2,24,0.00
2013-4-15,68.0,60.6,54.0,61.0,54.9,48.0,98,82,63,29.89,29.73,7,3,14,0.00
2013-4-16,53.0,48.8,46.0,52.0,45.9,-99.9,100,96,84,30.15,29.85,9,4,18,0.00
2013-4-17,76.0,56.2,45.0,70.0,53.5,41.0,100,91,75,30.14,29.73,9,4,22,0.00
2013-4-18,70.0,62.0,44.0,66.0,60.7,44.0,100,96,81,29.73,29.52,8,3,23,0.00
2013-4-19,44.0,39.0,37.0,44.0,34.8,31.0,100,85,75,29.95,29.58,12,6,24,0.00
2013-4-20,47.0,39.6,32.0,34.0,30.8,28.0,96,72,48,30.35,29.96,6,2,14,0.00
2013-4-21,57.0,45.1,34.0,37.0,32.3,28.0,84,63,44,30.46,30.29,4,1,13,0.00
2013-4-22,71.0,54.9,36.0,46.0,38.3,33.0,90,58,26,30.29,30.03,3,0,10,0.00
2013-4-23,63.0,55.0,41.0,58.0,50.4,41.0,100,85,64,30.03,29.76,9,2,20,0.00
2013-4-24,49.0,41.8,37.0,41.0,37.8,34.0,100,87,56,30.17,29.85,8,4,16,0.00
2013-4-25,55.0,45.7,38.0,40.0,35.6,32.0,91,70,44,30.31,30.13,7,3,20,0.00
2013-4-26,65.0,51.5,36.0,47.0,40.9,34.0,96,70,46,30.37,30.25,4,1,11,0.00
2013-4-27,65.0,54.0,44.0,54.0,47.9,42.0,100,82,45,30.27,29.91,3,1,11,0.00
2013-4-28,60.0,56.6,54.0,58.0,55.8,54.0,100,98,91,29.91,29.81,5,1,10,0.00
2013-4-29,74.0,61.7,50.0,57.0,54.5,50.0,100,80,52,29.94,29.80,4,2,12,0.00
2013-4-30,84.0,68.9,56.0,62.0,57.4,53.0,94,69,44,29.95,29.84,3,2,12,0.00
2013-5-1,85.0,71.2,56.0,60.0,55.9,52.0,95,63,32,30.10,29.95,3,1,10,0.00
2013-5-2,83.0,66.7,50.0,62.0,56.9,48.0,97,74,40,30.10,29.98,7,2,14,0.00
2013-5-3,74.0,60.1,47.0,55.0,0.9,-99.9,100,40,95,30.03,29.81,6,2,16,0.00
2013-5-4,65.0,59.5,55.0,-30.0,-33.5,-36.0,0,0,100,29.98,29.85,4,1,12,0.00
2013-5-5,64.0,57.6,53.0,-31.0,-34.7,-38.0,0,0,100,29.98,29.88,5,2,16,0.00
2013-5-6,69.0,61.5,55.0,-28.0,-32.2,-36.0,0,0,100,29.95,29.86,7,2,14,0.00
2013-5-7,76.0,64.8,57.0,-23.0,-30.2,-35.0,0,0,100,29.98,29.91,6,1,11,0.00
2013-5-8,80.0,67.1,52.0,-21.0,-28.8,-38.0,0,0,100,30.00,29.91,3,0,9,0.00
2013-5-9,73.0,62.2,54.0,65.0,20.8,-37.0,100,54,73,29.99,29.82,5,1,12,0.00
2013-5-10,69.0,58.5,48.0,62.0,54.8,-99.9,100,92,72,29.93,29.79,6,3,13,0.00
2013-5-11,66.0,52.3,46.0,54.0,42.6,-99.9,98,75,35,30.03,29.86,8,3,22,0.00
2013-5-12,58.0,48.0,39.0,36.0,33.0,28.0,84,58,33,30.11,30.03,7,2,16,0.00
2013-5-13,68.0,54.0,37.0,43.0,35.4,30.0,93,55,24,30.16,30.03,6,1,14,0.00
2013-5-14,86.0,69.9,52.0,62.0,52.1,40.0,71,55,37,30.04,29.73,7,3,18,0.00
2013-5-15,88.0,78.3,67.0,63.0,57.5,53.0,70,50,34,29.85,29.75,8,4,20,0.00
2013-5-16,86.0,69.1,67.0,65.0,39.4,-99.9,92,60,31,29.93,29.80,5,1,12,0.00
2013-5-17,83.0,70.7,61.0,67.0,56.8,-99.9,100,72,40,30.00,29.92,3,1,11,0.00
2013-5-18,80.0,70.0,60.0,66.0,62.4,60.0,100,79,53,30.02,29.92,3,0,10,0.00
2013-5-19,90.0,75.9,61.0,71.0,65.2,61.0,100,73,42,29.94,29.79,4,1,13,0.00
2013-5-20,87.0,78.8,72.0,72.0,66.0,57.0,90,67,44,29.87,29.76,6,3,18,0.00
2013-5-21,84.0,73.7,63.0,68.0,64.1,59.0,98,75,44,29.83,29.69,9,4,23,0.00
2013-5-22,76.0,69.3,63.0,67.0,61.6,54.0,97,78,47,29.79,29.64,6,3,18,0.00
2013-5-23,65.0,56.0,45.0,60.0,51.9,37.0,98,86,73,30.19,29.78,9,4,20,0.00
2013-5-24,67.0,52.6,39.0,44.0,39.4,36.0,95,64,33,30.35,30.19,7,3,15,0.00
2013-5-25,65.0,53.7,45.0,53.0,43.9,36.0,99,71,36,30.35,30.19,3,0,8,0.00
2013-5-26,69.0,58.9,50.0,58.0,52.2,47.0,99,80,60,30.24,30.06,5,2,11,0.00
2013-5-27,80.0,65.3,58.0,70.0,62.2,57.0,100,91,63,30.06,29.80,11,2,27,0.00
2013-5-28,83.0,72.8,63.0,69.0,65.3,62.0,100,79,59,29.91,29.81,7,3,22,0.00
2013-5-29,87.0,76.9,68.0,67.0,63.3,57.0,88,65,41,29.97,29.89,7,3,19,0.00
2013-5-30,85.0,76.3,68.0,71.0,66.0,62.0,87,71,50,29.97,29.86,7,3,19,0.00
2013-5-31,79.0,71.2,64.0,72.0,67.5,63.0,99,89,73,29.96,29.78,7,2,22,0.00
2013-6-1,75.0,67.8,62.0,65.0,64.0,61.0,99,88,70,29.85,29.70,6,3,16,0.00
2013-6-2,66.0,61.4,55.0,63.0,58.5,51.0,99,90,77,30.00,29.78,6,3,12,0.00
2013-6-3,68.0,58.5,50.0,51.0,48.1,45.0,86,70,49,30.08,29.98,5,2,12,0.00
2013-6-4,77.0,64.3,51.0,56.0,51.5,48.0,94,66,42,30.09,30.01,3,1,14,0.00
2013-6-5,81.0,68.9,55.0,60.0,55.3,52.0,90,64,41,30.03,29.84,3,1,9,0.00
2013-6-6,80.0,70.1,61.0,61.0,55.3,51.0,72,60,44,29.84,29.76,7,3,13,0.00
2013-6-7,71.0,63.7,58.0,65.0,58.4,54.0,94,83,67,29.89,29.80,5,2,10,0.00
2013-6-8,83.0,66.5,49.0,60.0,53.3,48.0,96,66,36,29.97,29.88,4,1,10,0.00
2013-6-9,84.0,71.6,61.0,67.0,60.1,54.0,96,71,37,29.97,29.80,4,1,12,0.00
2013-6-10,81.0,71.3,63.0,67.0,62.2,58.0,100,76,47,29.86,29.74,5,2,11,0.00
2013-6-11,88.0,75.2,61.0,70.0,62.8,58.0,96,68,40,29.95,29.83,5,1,12,0.00
2013-6-12,94.0,82.3,67.0,74.0,69.2,65.0,100,68,41,29.90,29.61,7,3,19,0.00
2013-6-13,85.0,73.0,63.0,70.0,60.3,49.0,93,67,37,30.00,29.61,9,5,20,0.00
2013-6-14,82.0,68.5,56.0,59.0,55.7,53.0,92,66,39,30.09,29.97,6,2,13,0.00
2013-6-15,85.0,72.1,60.0,68.0,61.5,56.0,97,72,40,30.07,29.90,7,2,17,0.00
2013-6-16,81.0,73.3,67.0,71.0,67.5,65.0,97,83,63,29.98,29.90,6,2,17,0.00
2013-6-17,90.0,76.7,68.0,75.0,66.0,54.0,100,74,32,29.95,29.86,5,1,11,0.00
2013-6-18,85.0,74.6,65.0,66.0,62.1,57.0,97,68,39,29.99,29.88,8,3,18,0.00
2013-6-19,87.0,72.9,62.0,64.0,60.3,58.0,96,67,37,30.08,29.98,7,2,12,0.00
2013-6-20,91.0,75.1,64.0,65.0,62.2,59.0,91,67,37,30.15,30.07,4,1,9,0.00
2013-6-22,87.0,74.7,70.0,73.0,67.3,65.0,94,78,60,30.14,29.98,6,2,19,0.00
2013-6-23,85.0,75.5,66.0,71.0,66.9,62.0,100,77,49,30.06,29.99,7,2,17,0.00
2013-6-24,89.0,77.2,67.0,74.0,69.2,62.0,97,78,56,30.10,29.93,6,2,12,0.00
2013-6-25,92.0,78.3,68.0,72.0,69.7,66.0,98,77,48,30.00,29.84,8,3,25,0.00
2013-6-26,82.0,74.5,67.0,73.0,70.0,67.0,99,87,63,29.90,29.72,5,2,14,0.00
2013-6-27,91.0,79.8,71.0,76.0,70.5,65.0,100,76,44,29.81,29.72,6,1,13,0.00
2013-6-28,87.0,76.4,67.0,68.0,63.9,56.0,96,69,36,29.75,29.61,8,2,21,0.00
2013-6-29,74.0,68.1,64.0,69.0,65.7,64.0,100,92,75,29.70,29.58,5,2,13,0.00
2013-6-30,75.0,68.2,65.0,67.0,63.3,60.0,100,85,61,29.89,29.69,11,4,22,0.00
2013-7-1,76.0,68.2,65.0,66.0,61.5,57.0,99,80,61,29.97,29.87,9,5,24,0.00
2013-7-2,68.0,64.1,61.0,64.0,61.8,60.0,97,92,84,30.01,29.94,6,4,13,0.00
2013-7-3,75.0,67.2,61.0,68.0,63.8,60.0,100,90,66,30.08,29.98,4,1,9,0.00
2013-7-4,82.0,69.5,57.0,66.0,60.9,57.0,100,77,45,30.11,30.04,3,0,8,0.00
2013-7-5,86.0,74.8,64.0,70.0,65.8,63.0,100,77,49,30.10,30.02,2,1,8,0.00
2013-7-6,78.0,71.7,69.0,71.0,69.1,68.0,99,92,74,30.07,30.00,3,1,8,0.00
2013-7-7,89.0,76.0,64.0,71.0,67.9,64.0,100,79,49,30.06,29.98,5,1,11,0.00
2013-7-8,88.0,77.2,72.0,74.0,69.4,-99.9,92,80,54,30.09,30.00,6,2,15,0.00
2013-7-9,93.0,82.7,76.0,77.0,73.1,71.0,87,74,53,30.03,29.91,5,2,11,0.00
2013-7-10,85.0,77.3,68.0,76.0,69.0,-99.9,100,79,60,30.03,29.84,6,2,15,0.00
2013-7-11,81.0,70.6,60.0,63.0,59.1,56.0,93,69,45,30.06,29.97,8,2,17,0.00
2013-7-12,83.0,69.8,55.0,64.0,58.6,54.0,98,71,41,30.12,30.05,4,1,10,0.00
2013-7-13,85.0,72.8,59.0,67.0,62.9,58.0,99,74,47,30.13,30.06,6,2,13,0.00
2013-7-14,93.0,79.8,67.0,74.0,68.4,64.0,93,70,44,30.18,30.09,2,0,8,0.00
2013-7-15,92.0,81.1,71.0,74.0,72.1,70.0,99,76,52,30.26,30.17,3,1,10,0.00
2013-7-16,94.0,81.2,69.0,75.0,70.7,67.0,100,75,41,30.33,30.25,3,1,9,0.00
2013-7-17,95.0,82.3,71.0,76.0,72.1,68.0,100,75,44,30.34,30.19,2,0,9,0.00
2013-7-18,95.0,84.0,73.0,76.0,73.2,70.0,99,73,44,30.21,30.02,4,1,10,0.00
2013-7-19,93.0,84.4,76.0,75.0,72.9,71.0,94,70,49,30.02,29.85,7,3,14,0.00
2013-7-20,82.0,75.4,69.0,76.0,70.5,-99.9,100,87,76,29.93,29.83,5,1,10,0.00
2013-7-21,82.0,74.4,68.0,73.0,70.4,68.0,100,88,69,29.96,29.86,2,0,5,0.00
2013-7-22,86.0,74.9,69.0,73.0,70.0,68.0,100,86,55,29.87,29.77,5,1,11,0.00
2013-7-23,85.0,75.6,65.0,73.0,67.2,58.0,99,77,54,29.93,29.75,7,3,16,0.00
2013-7-24,74.0,64.8,56.0,58.0,54.3,52.0,89,70,50,30.03,29.92,8,4,16,0.00
2013-7-25,81.0,66.3,53.0,62.0,56.9,52.0,99,75,46,30.10,30.02,3,0,8,0.00
2013-7-26,78.0,67.5,58.0,67.0,62.1,58.0,100,84,53,30.07,29.90,4,1,12,0.00
2013-7-27,74.0,66.5,56.0,67.0,58.1,50.0,98,76,48,29.96,29.88,4,2,17,0.00
2013-7-28,74.0,62.8,51.0,57.0,52.0,48.0,93,70,46,30.03,29.93,7,2,20,0.00
2013-7-29,79.0,64.6,52.0,62.0,56.3,52.0,100,78,45,30.16,30.03,3,0,8,0.00
2013-7-30,70.0,66.1,59.0,69.0,64.5,58.0,100,95,82,30.17,30.05,2,0,11,0.00
2013-7-31,78.0,71.2,66.0,72.0,68.8,66.0,100,93,78,30.05,29.93,3,1,9,0.00
2013-8-1,82.0,71.3,63.0,67.0,60.9,55.0,100,74,42,30.01,29.95,5,1,18,0.00
2013-8-2,82.0,71.0,59.0,70.0,64.4,58.0,97,81,60,29.98,29.91,7,2,16,0.00
2013-8-3,83.0,73.5,66.0,71.0,64.9,58.0,100,77,45,30.09,29.93,5,2,12,0.00
2013-8-4,81.0,68.6,57.0,63.0,58.0,55.0,99,72,41,30.17,30.09,5,0,10,0.00
2013-8-5,81.0,70.1,58.0,67.0,62.1,58.0,100,78,48,30.10,29.90,3,0,9,0.00
2013-8-6,85.0,74.5,68.0,72.0,68.3,64.0,97,82,60,29.92,29.85,3,0,7,0.00
2013-8-7,85.0,76.4,70.0,74.0,72.5,70.0,100,89,66,29.91,29.84,4,1,10,0.00
2013-8-8,76.0,72.8,70.0,74.0,71.6,64.0,100,96,82,29.96,29.88,6,2,12,0.00
2013-8-9,83.0,72.4,63.0,67.0,63.4,61.0,95,75,49,30.04,29.94,5,1,9,0.00
2013-8-10,84.0,74.8,67.0,69.0,65.7,61.0,98,76,46,30.10,30.04,4,1,9,0.00
2013-8-11,84.0,71.2,59.0,67.0,62.8,59.0,100,78,48,30.12,30.05,3,0,8,0.00
2013-8-21,89.0,76.4,64.0,73.0,67.4,64.0,100,77,46,30.13,30.02,4,1,9,0.00
2013-8-22,85.0,74.8,69.0,70.0,67.5,66.0,93,79,57,30.10,30.01,8,2,18,0.00
2013-8-23,82.0,72.4,66.0,69.0,66.9,65.0,100,84,56,30.14,30.06,6,1,11,0.00
2013-8-24,90.0,72.1,61.0,65.0,59.0,-99.9,100,71,36,30.24,30.13,2,0,6,0.00
2013-8-25,90.0,73.0,58.0,66.0,61.2,57.0,99,71,35,30.29,30.19,4,1,8,0.00
2013-8-26,90.0,76.2,63.0,74.0,68.0,61.0,99,79,49,30.21,30.05,3,1,10,0.00
2013-8-27,90.0,78.5,72.0,73.0,71.6,70.0,97,81,56,30.06,29.98,5,2,12,0.00
2013-9-3,77.0,65.7,55.0,62.0,57.6,55.0,100,78,49,30.08,29.95,3,1,7,0.00
2013-9-4,82.0,67.5,53.0,63.0,58.7,53.0,100,77,45,30.15,30.06,3,1,9,0.00
2013-9-5,89.0,72.6,59.0,67.0,62.0,59.0,100,73,41,30.19,30.12,2,0,7,0.00
2013-9-6,89.0,73.0,61.0,69.0,63.1,59.0,96,74,44,30.20,30.03,1,0,6,0.00
2013-9-7,89.0,73.7,63.0,68.0,61.9,-99.9,100,73,39,30.05,29.93,5,1,11,0.00
2013-9-8,88.0,75.4,67.0,72.0,68.6,66.0,99,81,51,29.98,29.91,2,0,6,0.00
2013-9-9,95.0,80.7,68.0,73.0,70.3,68.0,100,75,41,29.96,29.88,5,2,12,0.00
2013-10-18,60.0,48.8,43.0,48.0,43.6,42.0,96,84,62,29.96,29.87,4,1,11,0.00
2013-10-19,56.0,46.1,41.0,44.0,37.7,-99.9,100,78,46,29.92,29.84,7,2,20,0.00
2013-10-20,67.0,53.2,40.0,46.0,41.8,37.0,93,67,41,29.91,29.80,7,3,17,0.00
2013-10-21,54.0,47.8,32.0,47.0,41.4,29.0,92,79,58,29.99,29.85,4,1,12,0.00
2013-10-22,50.0,37.8,27.0,43.0,34.4,26.0,100,89,57,29.99,29.79,8,1,16,0.00
2013-10-23,45.0,39.4,34.0,37.0,35.1,32.0,100,86,65,30.03,29.83,6,2,13,0.00
2013-10-24,43.0,38.2,35.0,37.0,33.0,28.0,99,83,60,30.28,30.02,5,1,14,0.00
2013-10-25,51.0,43.0,27.0,33.0,30.5,26.0,95,63,43,30.42,30.16,5,1,11,0.00
2013-10-26,59.0,43.5,35.0,41.0,31.4,-99.9,89,66,46,30.15,29.87,8,3,21,0.00
2013-10-27,58.0,41.6,27.0,38.0,32.1,27.0,99,73,37,30.07,29.98,4,0,9,0.00
2013-10-28,62.0,42.8,29.0,41.0,31.6,-99.9,100,74,36,30.25,30.03,1,0,5,0.00
2013-10-29,58.0,46.9,37.0,51.0,40.0,-99.9,99,84,68,30.27,30.11,1,0,7,0.00
2013-10-30,66.0,58.7,51.0,65.0,58.5,51.0,100,99,96,30.10,29.84,4,1,13,0.00